Retour au catalogue

IRIDIUM 33 DEB

ActifPO
NORAD 34350·DEBRIS·🇺🇸 United States

Lancé Sep 14, 1997 depuis Baikonur Cosmodrome

Loading…

Prochains Passages (prochaines 24 heures)

TLE

FraisSource: Space-Track

Époque: Sep 14, 2026, 10:16 UTC

1 34350U 97051ES  26257.42786208  .00000820  00000-0  22432-3 0  9992
2 34350  86.3230 243.0933 0019056 308.6343 205.0093 14.46008862922765

Suivez IRIDIUM 33 DEB en temps réel avec AllMySat

Download on the App Store